EZY19DV EGGP-EGJJ

Flight info

Callsign EZY19DV
Flight time N/A
Altitude 33000
Route NANTI L8 STAFA P18 TELBA L151 KIDLI UN859 CPT Y321 PEPIS/N0457F320 Q41 SAM N63 LELNA
Aircraft A320/M-SDE3FGHIRWY/LB1

Departure

Time N/A
Airport Liverpool John Lennon Airport (EGGP)

Arrival

Time 2026-05-04 07:13
Airport Jersey Airport (EGJJ)
Time Latitude Longitude Altitude Speed Heading
2026-05-04 06:36 52.37647 -2.00488 26470 ft 434 kts 147°
2026-05-04 06:37 52.35123 -1.97758 26768 ft 436 kts 148°
2026-05-04 06:37 52.32585 -1.95013 27086 ft 438 kts 148°
2026-05-04 06:37 52.30033 -1.92260 27382 ft 440 kts 148°
2026-05-04 06:37 52.27507 -1.89543 27666 ft 442 kts 148°
2026-05-04 06:38 52.24933 -1.86780 28012 ft 443 kts 148°
2026-05-04 06:38 52.22328 -1.83989 28331 ft 444 kts 148°
2026-05-04 06:40 52.04120 -1.64566 30253 ft 448 kts 148°
2026-05-04 06:40 52.02394 -1.62727 30430 ft 448 kts 148°
2026-05-04 06:40 51.99792 -1.59955 30739 ft 446 kts 149°
2026-05-04 06:40 51.97199 -1.57207 31020 ft 446 kts 149°
2026-05-04 06:41 51.94568 -1.54432 31301 ft 445 kts 149°
2026-05-04 06:41 51.91967 -1.51697 31573 ft 445 kts 149°
2026-05-04 06:41 51.89373 -1.48973 31844 ft 445 kts 148°
2026-05-04 06:41 51.86778 -1.46245 32118 ft 445 kts 148°
2026-05-04 06:42 51.84183 -1.43516 32395 ft 444 kts 149°
2026-05-04 06:42 51.81593 -1.40799 32680 ft 444 kts 149°
2026-05-04 06:42 51.79001 -1.38103 32925 ft 442 kts 152°
2026-05-04 06:44 51.59016 -1.26952 32994 ft 435 kts 165°
2026-05-04 06:44 51.53245 -1.24034 33008 ft 434 kts 165°
2026-05-04 06:45 51.47363 -1.22216 32986 ft 430 kts 180°
2026-05-04 06:45 51.41407 -1.22595 32980 ft 428 kts 185°
2026-05-04 06:46 51.35451 -1.23089 32974 ft 429 kts 184°
2026-05-04 06:46 51.29501 -1.23575 32991 ft 428 kts 185°
2026-05-04 06:48 51.06300 -1.29992 33006 ft 423 kts 195°
2026-05-04 06:50 50.84496 -1.43325 32989 ft 421 kts 206°
2026-05-04 06:51 50.79254 -1.47478 32982 ft 422 kts 206°
2026-05-04 06:51 50.74004 -1.51644 32982 ft 422 kts 206°
2026-05-04 06:52 50.68750 -1.55815 32982 ft 423 kts 206°
2026-05-04 06:52 50.63495 -1.59966 32979 ft 423 kts 206°
2026-05-04 06:53 50.58246 -1.64096 32716 ft 421 kts 206°
2026-05-04 06:53 50.55632 -1.66149 32446 ft 419 kts 206°
2026-05-04 06:53 50.53026 -1.68195 32183 ft 419 kts 206°
2026-05-04 06:54 50.50420 -1.70241 31402 ft 420 kts 206°
2026-05-04 06:54 50.47840 -1.72265 30464 ft 420 kts 206°
2026-05-04 06:54 50.45217 -1.74322 29341 ft 422 kts 206°
2026-05-04 06:54 50.42594 -1.76373 28307 ft 421 kts 206°
2026-05-04 06:55 50.39943 -1.78437 27441 ft 418 kts 206°
2026-05-04 06:55 50.37374 -1.80436 26877 ft 408 kts 206°
2026-05-04 06:55 50.34845 -1.82402 26229 ft 403 kts 206°
2026-05-04 06:55 50.32379 -1.84323 25629 ft 399 kts 206°
2026-05-04 06:56 50.29880 -1.86268 24975 ft 395 kts 206°
2026-05-04 06:57 50.13208 -1.99158 20961 ft 369 kts 206°
2026-05-04 06:58 50.10914 -2.00926 20466 ft 366 kts 206°
2026-05-04 06:58 50.08641 -2.02676 19981 ft 363 kts 205°
2026-05-04 06:58 50.06413 -2.04389 19523 ft 360 kts 205°
2026-05-04 06:58 50.04172 -2.06110 19065 ft 358 kts 205°
2026-05-04 06:59 50.01943 -2.07817 18623 ft 356 kts 205°
2026-05-04 06:59 49.99727 -2.09513 18181 ft 355 kts 205°
2026-05-04 06:59 49.97433 -2.10885 17695 ft 352 kts 195°
2026-05-04 06:59 49.95057 -2.11735 17254 ft 350 kts 192°
2026-05-04 07:01 49.78766 -2.17296 13892 ft 338 kts 191°
2026-05-04 07:01 49.76468 -2.18078 13319 ft 337 kts 192°
2026-05-04 07:02 49.74185 -2.18855 12796 ft 335 kts 192°
2026-05-04 07:02 49.71910 -2.19629 12260 ft 333 kts 192°
2026-05-04 07:02 49.69655 -2.20437 11721 ft 332 kts 193°
2026-05-04 07:02 49.67424 -2.21369 11162 ft 332 kts 195°
2026-05-04 07:03 49.65225 -2.22366 10796 ft 325 kts 196°
2026-05-04 07:03 49.63104 -2.23356 10670 ft 311 kts 196°
2026-05-04 07:03 49.61070 -2.24304 10544 ft 299 kts 196°
2026-05-04 07:03 49.59115 -2.25205 10432 ft 288 kts 195°
2026-05-04 07:04 49.57216 -2.26064 10228 ft 280 kts 195°
2026-05-04 07:04 49.55349 -2.26897 10112 ft 279 kts 195°
2026-05-04 07:04 49.53484 -2.27727 10023 ft 279 kts 195°
2026-05-04 07:04 49.51622 -2.28556 9918 ft 280 kts 195°
2026-05-04 07:05 49.49726 -2.29398 9400 ft 283 kts 195°
2026-05-04 07:05 49.47870 -2.30222 9042 ft 280 kts 195°
2026-05-04 07:05 49.46013 -2.31042 8469 ft 276 kts 195°
2026-05-04 07:05 49.44174 -2.31853 7788 ft 273 kts 195°
2026-05-04 07:06 49.40586 -2.33431 6619 ft 262 kts 196°
2026-05-04 07:06 49.38861 -2.34192 6111 ft 254 kts 196°
2026-05-04 07:06 49.37184 -2.34932 5615 ft 247 kts 196°
2026-05-04 07:07 49.35560 -2.35649 5145 ft 239 kts 196°
2026-05-04 07:08 49.25499 -2.40068 2603 ft 185 kts 197°
2026-05-04 07:09 49.24276 -2.40627 2553 ft 183 kts 197°
2026-05-04 07:09 49.23026 -2.40889 2469 ft 182 kts 177°
2026-05-04 07:09 49.21793 -2.40463 2422 ft 184 kts 159°
2026-05-04 07:09 49.20700 -2.39452 2372 ft 185 kts 141°
2026-05-04 07:10 49.19872 -2.37981 2263 ft 179 kts 119°
2026-05-04 07:10 49.19491 -2.36242 2043 ft 169 kts 97°
2026-05-04 07:12 49.20305 -2.25365 1000 ft 140 kts 81°
2026-05-04 07:12 49.20428 -2.23899 802 ft 138 kts 81°
2026-05-04 07:12 49.20555 -2.22454 569 ft 136 kts 80°
2026-05-04 07:12 49.20673 -2.21020 356 ft 135 kts 81°
2026-05-04 07:13 49.20789 -2.19670 285 ft 106 kts 83°
2026-05-04 07:13 49.20846 -2.18970 284 ft 43 kts 82°
2026-05-04 07:13 49.20882 -2.18548 282 ft 36 kts 82°
2026-05-04 07:14 49.20731 -2.18549 284 ft 9 kts 264°
2026-05-04 07:14 49.20717 -2.18733 284 ft 22 kts 263°
2026-05-04 07:15 49.20695 -2.18969 284 ft 23 kts 262°
2026-05-04 07:15 49.20681 -2.19219 284 ft 23 kts 280°
2026-05-04 07:15 49.20710 -2.19436 284 ft 14 kts 262°
2026-05-04 07:15 49.20694 -2.19573 284 ft 12 kts 259°
2026-05-04 07:16 49.20651 -2.19663 284 ft 10 kts 208°
2026-05-04 07:16 49.20615 -2.19730 284 ft 8 kts 261°
2026-05-04 07:16 49.20610 -2.19807 284 ft 7 kts 263°
2026-05-04 07:16 49.20605 -2.19871 286 ft 6 kts 263°
2026-05-04 07:17 49.20594 -2.19922 284 ft 5 kts 233°
2026-05-04 07:17 49.20546 -2.19934 284 ft 8 kts 173°
2026-05-04 07:17 49.20494 -2.19926 284 ft 7 kts 175°
2026-05-04 07:17 49.20449 -2.19918 284 ft 6 kts 167°
2026-05-04 07:18 49.20433 -2.19851 284 ft 8 kts 81°
2026-05-04 07:18 49.20438 -2.19774 284 ft 7 kts 85°
2026-05-04 07:18 49.20442 -2.19711 284 ft 5 kts 85°
2026-05-04 07:18 49.20456 -2.19675 286 ft 3 kts 26°
2026-05-04 07:19 49.20473 -2.19678 284 ft 3 kts 355°
2026-05-04 07:19 49.20487 -2.19677 284 ft 1 kts
2026-05-04 07:19 49.20494 -2.19677 284 ft 1 kts
2026-05-04 07:19 49.20497 -2.19676 284 ft 0 kts
2026-05-04 07:20 49.20498 -2.19676 284 ft 0 kts